| time (UTC) | temp F | wind direction | speed MPH | gust MPH | rain 1hr in | rain 24hr in | rain mn in | humidity % | barometer mb |
| 20260502212903 | 87 | 298 | 4.0 | 10.0 | 0.00 | 0.00 | 0.00 | 27 | 1027.9 |
| 20260502212404 | 87 | 263 | 5.0 | 12.0 | 0.00 | 0.00 | 0.00 | 29 | 1027.9 |
| 20260502211903 | 87 | 299 | 5.0 | 12.0 | 0.00 | 0.00 | 0.00 | 29 | 1028.1 |
| 20260502211403 | 87 | 289 | 5.0 | 12.0 | 0.00 | 0.00 | 0.00 | 28 | 1028.1 |
| 20260502210904 | 87 | 184 | 1.0 | 5.0 | 0.00 | 0.00 | 0.00 | 33 | 1028.1 |
| 20260502205904 | 86 | 55 | 2.0 | 5.0 | 0.00 | 0.00 | 0.00 | 31 | 1028.2 |
| 20260502205404 | 86 | 349 | 5.0 | 12.0 | 0.00 | 0.00 | 0.00 | 32 | 1028.3 |
| 20260502204903 | 85 | 171 | 2.0 | 5.0 | 0.00 | 0.00 | 0.00 | 32 | 1028.4 |
| 20260502204404 | 85 | 232 | 5.0 | 10.0 | 0.00 | 0.00 | 0.00 | 33 | 1028.5 |
| 20260502203903 | 85 | 225 | 5.0 | 8.0 | 0.00 | 0.00 | 0.00 | 34 | 1028.6 |
| 20260502203404 | 84 | 224 | 3.0 | 8.0 | 0.00 | 0.00 | 0.00 | 35 | 1028.6 |
| 20260502202903 | 84 | 273 | 3.0 | 8.0 | 0.00 | 0.00 | 0.00 | 34 | 1028.7 |
| 20260502202403 | 84 | 217 | 3.0 | 7.0 | 0.00 | 0.00 | 0.00 | 34 | 1028.7 |
| 20260502201904 | 83 | 307 | 3.0 | 8.0 | 0.00 | 0.00 | 0.00 | 36 | 1028.8 |
| 20260502201403 | 83 | 287 | 4.0 | 10.0 | 0.00 | 0.00 | 0.00 | 36 | 1029.1 |
| 20260502200903 | 83 | 260 | 3.0 | 8.0 | 0.00 | 0.00 | 0.00 | 38 | 1029.2 |
| 20260502200404 | 82 | 249 | 5.0 | 9.0 | 0.00 | 0.00 | 0.00 | 39 | 1029.3 |
| 20260502195903 | 82 | 258 | 5.0 | 7.0 | 0.00 | 0.00 | 0.00 | 39 | 1029.3 |
| 20260502195404 | 81 | 268 | 4.0 | 6.0 | 0.00 | 0.00 | 0.00 | 40 | 1029.4 |
| 20260502194904 | 81 | 220 | 5.0 | 10.0 | 0.00 | 0.00 | 0.00 | 41 | 1029.4 |
| 20260502194403 | 81 | 281 | 4.0 | 7.0 | 0.00 | 0.00 | 0.00 | 41 | 1029.5 |
| 20260502193904 | 80 | 217 | 5.0 | 9.0 | 0.00 | 0.00 | 0.00 | 42 | 1029.5 |
| 20260502193403 | 80 | 272 | 5.0 | 8.0 | 0.00 | 0.00 | 0.00 | 43 | 1029.6 |
| 20260502192903 | 79 | 288 | 2.0 | 6.0 | 0.00 | 0.00 | 0.00 | 46 | 1029.7 |
| 20260502192403 | 79 | 252 | 5.0 | 8.0 | 0.00 | 0.00 | 0.00 | 45 | 1029.9 |
| 20260502191903 | 79 | 253 | 5.0 | 9.0 | 0.00 | 0.00 | 0.00 | 45 | 1029.9 |
| 20260502191403 | 79 | 234 | 2.0 | 6.0 | 0.00 | 0.00 | 0.00 | 48 | 1030.1 |
| 20260502190903 | 78 | 233 | 3.0 | 5.0 | 0.00 | 0.00 | 0.00 | 48 | 1030.2 |
| 20260502190403 | 78 | 301 | 4.0 | 7.0 | 0.00 | 0.00 | 0.00 | 48 | 1030.2 |
| 20260502185904 | 78 | 267 | 2.0 | 5.0 | 0.00 | 0.00 | 0.00 | 49 | 1030.3 |
| 20260502185403 | 77 | 278 | 3.0 | 7.0 | 0.00 | 0.00 | 0.00 | 48 | 1030.3 |
| 20260502183904 | 77 | 205 | 0.0 | 5.0 | 0.00 | 0.00 | 0.00 | 50 | 1030.7 |
| 20260502183404 | 77 | 114 | 2.0 | 3.0 | 0.00 | 0.00 | 0.00 | 50 | 1030.8 |
| 20260502182903 | 76 | 215 | 0.0 | 2.0 | 0.00 | 0.00 | 0.00 | 52 | 1030.9 |
| 20260502182404 | 75 | 180 | 0.0 | 3.0 | 0.00 | 0.00 | 0.00 | 52 | 1030.9 |
| 20260502181904 | 74 | 210 | 0.0 | 3.0 | 0.00 | 0.00 | 0.00 | 54 | 1031.0 |
| 20260502181403 | 73 | 225 | 3.0 | 5.0 | 0.00 | 0.00 | 0.00 | 55 | 1031.1 |
| 20260502180904 | 73 | 286 | 3.0 | 8.0 | 0.00 | 0.00 | 0.00 | 56 | 1031.1 |
| 20260502180404 | 73 | 272 | 2.0 | 6.0 | 0.00 | 0.00 | 0.00 | 57 | 1031.2 |
| 20260502170404 | 65 | 266 | 2.0 | 7.0 | 0.00 | 0.00 | 0.00 | 71 | 1031.5 |
| 20260502163903 | 65 | 30 | 0.0 | 0.0 | 0.00 | 0.00 | 0.00 | 74 | 1031.8 |
| 20260502163403 | 64 | 30 | 0.0 | 0.0 | 0.00 | 0.00 | 0.00 | 75 | 1031.9 |
| 20260502162903 | 63 | 175 | 0.0 | 2.0 | 0.00 | 0.00 | 0.00 | 76 | 1031.9 |
| 20260502162403 | 63 | 99 | 1.0 | 3.0 | 0.00 | 0.00 | 0.00 | 77 | 1031.9 |
| 20260502161903 | 62 | 22 | 2.0 | 3.0 | 0.00 | 0.00 | 0.00 | 79 | 1031.9 |
| 20260502160403 | 60 | 75 | 1.0 | 3.0 | 0.00 | 0.00 | 0.00 | 84 | 1032.4 |
| 20260502151903 | 57 | 101 | 2.0 | 3.0 | 0.00 | 0.00 | 0.00 | 89 | 1032.2 |
| 20260502150903 | 56 | 76 | 0.0 | 3.0 | 0.00 | 0.00 | 0.00 | 89 | 1032.2 |
| 20260502150403 | 56 | 77 | 0.0 | 0.0 | 0.00 | 0.00 | 0.00 | 88 | 1032.3 |
| 20260502123403 | 54 | 61 | 0.0 | 0.0 | 0.00 | 0.00 | 0.00 | 78 | 1030.9 |
| 20260502122903 | 54 | 61 | 0.0 | 0.0 | 0.00 | 0.00 | 0.00 | 78 | 1030.9 |
| 20260502122403 | 54 | 61 | 0.0 | 0.0 | 0.00 | 0.00 | 0.00 | 78 | 1030.8 |
| 20260502121403 | 54 | 61 | 0.0 | 0.0 | 0.00 | 0.00 | 0.00 | 78 | 1030.8 |
| 20260502120903 | 55 | 61 | 0.0 | 0.0 | 0.00 | 0.00 | 0.00 | 78 | 1030.7 |
| 20260502115903 | 55 | 61 | 0.0 | 0.0 | 0.00 | 0.00 | 0.00 | 78 | 1030.6 |
| 20260502115403 | 55 | 61 | 0.0 | 0.0 | 0.00 | 0.00 | 0.00 | 78 | 1030.7 |
| 20260502114903 | 55 | 61 | 0.0 | 0.0 | 0.00 | 0.00 | 0.00 | 77 | 1030.7 |
| 20260502114403 | 55 | 61 | 0.0 | 0.0 | 0.00 | 0.00 | 0.00 | 77 | 1030.7 |
| 20260502112903 | 55 | 61 | 0.0 | 0.0 | 0.00 | 0.00 | 0.00 | 77 | 1030.6 |
| 20260502112403 | 55 | 61 | 0.0 | 0.0 | 0.00 | 0.00 | 0.00 | 77 | 1030.6 |
| 20260502111903 | 55 | 61 | 0.0 | 0.0 | 0.00 | 0.00 | 0.00 | 77 | 1030.6 |
| 20260502111403 | 55 | 61 | 0.0 | 0.0 | 0.00 | 0.00 | 0.00 | 77 | 1030.7 |
| 20260502110904 | 55 | 61 | 0.0 | 0.0 | 0.00 | 0.00 | 0.00 | 77 | 1030.6 |
| 20260502110404 | 55 | 61 | 0.0 | 0.0 | 0.00 | 0.00 | 0.00 | 77 | 1030.6 |
| 20260502105903 | 55 | 61 | 0.0 | 1.0 | 0.00 | 0.00 | 0.00 | 77 | 1030.5 |
| 20260502105403 | 56 | 61 | 0.0 | 2.0 | 0.00 | 0.00 | 0.00 | 77 | 1030.5 |
| 20260502104904 | 56 | 61 | 2.0 | 3.0 | 0.00 | 0.00 | 0.00 | 78 | 1030.5 |
| 20260502104403 | 56 | 134 | 0.0 | 0.0 | 0.00 | 0.00 | 0.00 | 79 | 1030.5 |
| 20260502103905 | 57 | 134 | 0.0 | 0.0 | 0.00 | 0.00 | 0.00 | 79 | 1030.6 |
| 20260502103403 | 57 | 134 | 0.0 | 0.0 | 0.00 | 0.00 | 0.00 | 79 | 1030.4 |
| 20260502102404 | 57 | 134 | 0.0 | 0.0 | 0.00 | 0.00 | 0.00 | 79 | 1030.4 |
| 20260502101904 | 57 | 134 | 0.0 | 0.0 | 0.00 | 0.00 | 0.00 | 79 | 1030.4 |
| 20260502100903 | 57 | 134 | 0.0 | 0.0 | 0.00 | 0.00 | 0.00 | 78 | 1030.4 |
| 20260502100403 | 57 | 134 | 0.0 | 0.0 | 0.00 | 0.00 | 0.00 | 78 | 1030.4 |
| 20260502091403 | 58 | 134 | 1.0 | 2.0 | 0.00 | 0.00 | 0.00 | 79 | 1030.9 |
| 20260502090903 | 59 | 134 | 0.0 | 1.0 | 0.00 | 0.00 | 0.00 | 79 | 1031.0 |
| 20260502090403 | 59 | 134 | 0.0 | 2.0 | 0.00 | 0.00 | 0.00 | 79 | 1031.0 |
| 20260502071403 | 61 | 202 | 0.0 | 0.0 | 0.00 | 0.00 | 0.00 | 77 | 1031.5 |
| 20260502070903 | 61 | 202 | 0.0 | 1.0 | 0.00 | 0.00 | 0.00 | 77 | 1031.5 |
| 20260502070403 | 62 | 202 | 1.0 | 2.0 | 0.00 | 0.00 | 0.00 | 77 | 1031.5 |
| 20260502065404 | 62 | 202 | 0.0 | 0.0 | 0.00 | 0.00 | 0.00 | 76 | 1031.5 |
| 20260502064904 | 62 | 202 | 0.0 | 0.0 | 0.00 | 0.00 | 0.00 | 76 | 1031.5 |
| 20260502064403 | 62 | 202 | 0.0 | 0.0 | 0.00 | 0.00 | 0.00 | 76 | 1031.5 |
| 20260502063904 | 62 | 202 | 0.0 | 0.0 | 0.00 | 0.00 | 0.00 | 76 | 1031.5 |
| 20260502062403 | 63 | 205 | 0.0 | 1.0 | 0.00 | 0.00 | 0.00 | 75 | 1031.5 |
| 20260502061904 | 63 | 205 | 0.0 | 0.0 | 0.00 | 0.00 | 0.00 | 75 | 1031.5 |
| 20260502061404 | 63 | 205 | 0.0 | 0.0 | 0.00 | 0.00 | 0.00 | 74 | 1031.4 |
| 20260502060904 | 63 | 205 | 0.0 | 2.0 | 0.00 | 0.00 | 0.00 | 74 | 1031.5 |
| 20260502060403 | 63 | 205 | 0.0 | 0.0 | 0.00 | 0.00 | 0.00 | 74 | 1031.4 |
| 20260502055904 | 63 | 155 | 0.0 | 0.0 | 0.00 | 0.00 | 0.00 | 73 | 1031.4 |
| 20260502055404 | 63 | 154 | 0.0 | 1.0 | 0.00 | 0.00 | 0.00 | 73 | 1031.4 |
| 20260502054904 | 64 | 154 | 0.0 | 1.0 | 0.00 | 0.00 | 0.00 | 73 | 1031.4 |
| 20260502054404 | 64 | 154 | 0.0 | 2.0 | 0.00 | 0.00 | 0.00 | 73 | 1031.4 |
| 20260502053904 | 64 | 154 | 1.0 | 2.0 | 0.00 | 0.00 | 0.00 | 72 | 1031.4 |
| 20260502052904 | 64 | 152 | 2.0 | 3.0 | 0.00 | 0.00 | 0.00 | 72 | 1031.5 |
| 20260502052403 | 64 | 181 | 1.0 | 3.0 | 0.00 | 0.00 | 0.00 | 72 | 1031.5 |
| 20260502051903 | 64 | 190 | 2.0 | 5.0 | 0.00 | 0.00 | 0.00 | 72 | 1031.5 |
| 20260502051404 | 64 | 151 | 1.0 | 3.0 | 0.00 | 0.00 | 0.00 | 71 | 1031.5 |
| 20260502050904 | 65 | 183 | 1.0 | 3.0 | 0.00 | 0.00 | 0.00 | 71 | 1031.5 |
| 20260502050404 | 65 | 167 | 1.0 | 3.0 | 0.00 | 0.00 | 0.00 | 71 | 1031.5 |
| 20260502045904 | 65 | 196 | 1.0 | 3.0 | 0.00 | 0.00 | 0.00 | 71 | 1031.5 |
| 20260502045403 | 65 | 196 | 0.0 | 3.0 | 0.00 | 0.00 | 0.00 | 70 | 1031.5 |
| 20260502044903 | 65 | 161 | 0.0 | 3.0 | 0.00 | 0.00 | 0.00 | 70 | 1031.4 |
| 20260502043904 | 65 | 186 | 2.0 | 3.0 | 0.00 | 0.00 | 0.00 | 70 | 1031.4 |
| 20260502043403 | 65 | 178 | 1.0 | 6.0 | 0.00 | 0.00 | 0.00 | 69 | 1031.3 |
| 20260502042903 | 66 | 178 | 3.0 | 6.0 | 0.00 | 0.00 | 0.00 | 68 | 1031.3 |
| 20260502041403 | 66 | 175 | 0.0 | 2.0 | 0.00 | 0.00 | 0.00 | 68 | 1031.1 |
| 20260502040403 | 67 | 171 | 2.0 | 3.0 | 0.00 | 0.00 | 0.00 | 67 | 1031.0 |
| 20260502035903 | 67 | 175 | 2.0 | 7.0 | 0.00 | 0.00 | 0.00 | 66 | 1030.9 |
| 20260502035403 | 67 | 194 | 2.0 | 8.0 | 0.00 | 0.00 | 0.00 | 66 | 1030.8 |
| 20260502034903 | 68 | 230 | 2.0 | 9.0 | 0.00 | 0.00 | 0.00 | 65 | 1030.7 |
| 20260502034403 | 68 | 176 | 3.0 | 8.0 | 0.00 | 0.00 | 0.00 | 65 | 1030.6 |
| 20260502033903 | 68 | 146 | 3.0 | 9.0 | 0.00 | 0.00 | 0.00 | 64 | 1030.5 |
| 20260502033403 | 68 | 178 | 3.0 | 5.0 | 0.00 | 0.00 | 0.00 | 64 | 1030.4 |
| 20260502032903 | 69 | 165 | 3.0 | 9.0 | 0.00 | 0.00 | 0.00 | 63 | 1030.3 |
| 20260502031903 | 69 | 206 | 7.0 | 15.0 | 0.00 | 0.00 | 0.00 | 62 | 1030.0 |
| 20260502031403 | 70 | 204 | 5.0 | 14.0 | 0.00 | 0.00 | 0.00 | 61 | 1029.9 |
| 20260502030903 | 71 | 203 | 7.0 | 12.0 | 0.00 | 0.00 | 0.00 | 59 | 1029.9 |
| 20260502030403 | 71 | 211 | 6.0 | 10.0 | 0.00 | 0.00 | 0.00 | 58 | 1029.7 |
| 20260502025903 | 72 | 217 | 7.0 | 12.0 | 0.00 | 0.00 | 0.00 | 57 | 1029.6 |
| 20260502025403 | 73 | 214 | 5.0 | 10.0 | 0.00 | 0.00 | 0.00 | 56 | 1029.4 |
| 20260502024903 | 73 | 221 | 7.0 | 12.0 | 0.00 | 0.00 | 0.00 | 55 | 1029.3 |
| 20260502024403 | 74 | 221 | 7.0 | 12.0 | 0.00 | 0.00 | 0.00 | 54 | 1029.2 |
| 20260502023903 | 75 | 210 | 6.0 | 10.0 | 0.00 | 0.00 | 0.00 | 53 | 1029.1 |
| 20260502023403 | 75 | 210 | 7.0 | 12.0 | 0.00 | 0.00 | 0.00 | 51 | 1029.1 |
| 20260502022903 | 76 | 221 | 6.0 | 12.0 | 0.00 | 0.00 | 0.00 | 50 | 1029.1 |
| 20260502022404 | 77 | 225 | 6.0 | 10.0 | 0.00 | 0.00 | 0.00 | 49 | 1029.1 |
| 20260502021903 | 77 | 227 | 5.0 | 9.0 | 0.00 | 0.00 | 0.00 | 48 | 1028.9 |
| 20260502021404 | 78 | 210 | 7.0 | 10.0 | 0.00 | 0.00 | 0.00 | 47 | 1028.9 |
| 20260502020903 | 79 | 215 | 7.0 | 9.0 | 0.00 | 0.00 | 0.00 | 45 | 1028.9 |
| 20260502020403 | 80 | 230 | 5.0 | 9.0 | 0.00 | 0.00 | 0.00 | 43 | 1028.9 |
| 20260502015903 | 80 | 259 | 7.0 | 10.0 | 0.00 | 0.00 | 0.00 | 32 | 1028.9 |
| 20260502015403 | 80 | 278 | 8.0 | 10.0 | 0.00 | 0.00 | 0.00 | 30 | 1028.8 |
| 20260502014403 | 81 | 269 | 7.0 | 12.0 | 0.00 | 0.00 | 0.00 | 33 | 1028.7 |
| 20260502013903 | 81 | 271 | 7.0 | 10.0 | 0.00 | 0.00 | 0.00 | 33 | 1028.7 |
| 20260502013404 | 81 | 285 | 6.0 | 12.0 | 0.00 | 0.00 | 0.00 | 30 | 1028.7 |
| 20260502012903 | 82 | 281 | 9.0 | 12.0 | 0.00 | 0.00 | 0.00 | 25 | 1028.7 |
| 20260502012403 | 82 | 277 | 7.0 | 14.0 | 0.00 | 0.00 | 0.00 | 27 | 1028.6 |
| 20260502011903 | 82 | 287 | 9.0 | 13.0 | 0.00 | 0.00 | 0.00 | 28 | 1028.6 |
| 20260502011403 | 82 | 277 | 9.0 | 13.0 | 0.00 | 0.00 | 0.00 | 31 | 1028.6 |
| 20260502010904 | 82 | 294 | 8.0 | 12.0 | 0.00 | 0.00 | 0.00 | 33 | 1028.6 |
| 20260502010403 | 82 | 308 | 6.0 | 12.0 | 0.00 | 0.00 | 0.00 | 34 | 1028.6 |
| 20260502005903 | 82 | 301 | 7.0 | 15.0 | 0.00 | 0.00 | 0.00 | 34 | 1028.5 |
| 20260502005403 | 83 | 287 | 7.0 | 14.0 | 0.00 | 0.00 | 0.00 | 33 | 1028.4 |
| 20260502004904 | 83 | 305 | 6.0 | 15.0 | 0.00 | 0.00 | 0.00 | 34 | 1028.4 |
| 20260502004405 | 83 | 274 | 8.0 | 14.0 | 0.00 | 0.00 | 0.00 | 33 | 1028.4 |
| 20260502003904 | 83 | 281 | 6.0 | 12.0 | 0.00 | 0.00 | 0.00 | 33 | 1028.4 |
| 20260502003403 | 83 | 280 | 8.0 | 13.0 | 0.00 | 0.00 | 0.00 | 33 | 1028.4 |
| 20260502002903 | 83 | 298 | 7.0 | 14.0 | 0.00 | 0.00 | 0.00 | 33 | 1028.4 |
| 20260502002403 | 83 | 277 | 9.0 | 14.0 | 0.00 | 0.00 | 0.00 | 31 | 1028.4 |
| 20260502001903 | 84 | 296 | 8.0 | 14.0 | 0.00 | 0.00 | 0.00 | 31 | 1028.3 |
| 20260502001403 | 84 | 289 | 6.0 | 12.0 | 0.00 | 0.00 | 0.00 | 32 | 1028.3 |
| 20260502000904 | 84 | 283 | 7.0 | 13.0 | 0.00 | 0.00 | 0.00 | 33 | 1028.3 |
| 20260502000403 | 84 | 281 | 6.0 | 14.0 | 0.00 | 0.00 | 0.00 | 33 | 1028.3 |
| 20260501235903 | 83 | 313 | 6.0 | 14.0 | 0.00 | 0.00 | 0.00 | 34 | 1028.3 |
| 20260501235404 | 83 | 302 | 8.0 | 14.0 | 0.00 | 0.00 | 0.00 | 34 | 1028.4 |
| 20260501234403 | 84 | 285 | 7.0 | 15.0 | 0.00 | 0.00 | 0.00 | 32 | 1028.4 |
| 20260501233904 | 84 | 281 | 8.0 | 17.0 | 0.00 | 0.00 | 0.00 | 33 | 1028.4 |
| 20260501233403 | 83 | 272 | 9.0 | 13.0 | 0.00 | 0.00 | 0.00 | 33 | 1028.4 |
| 20260501232903 | 83 | 290 | 8.0 | 14.0 | 0.00 | 0.00 | 0.00 | 33 | 1028.4 |
| 20260501230403 | 84 | 331 | 6.0 | 15.0 | 0.00 | 0.00 | 0.00 | 33 | 1028.7 |
| 20260501225403 | 84 | 301 | 10.0 | 15.0 | 0.00 | 0.00 | 0.00 | 32 | 1028.8 |
| 20260501224903 | 84 | 299 | 8.0 | 15.0 | 0.00 | 0.00 | 0.00 | 32 | 1028.8 |
| 20260501224404 | 84 | 292 | 7.0 | 16.0 | 0.00 | 0.00 | 0.00 | 32 | 1028.8 |
| 20260501223903 | 85 | 306 | 8.0 | 15.0 | 0.00 | 0.00 | 0.00 | 32 | 1028.9 |
| 20260501223403 | 84 | 290 | 9.0 | 15.0 | 0.00 | 0.00 | 0.00 | 32 | 1028.9 |
| 20260501222904 | 85 | 281 | 9.0 | 15.0 | 0.00 | 0.00 | 0.00 | 31 | 1029.1 |
| 20260501222403 | 85 | 305 | 7.0 | 14.0 | 0.00 | 0.00 | 0.00 | 32 | 1029.1 |
| 20260501221903 | 84 | 289 | 6.0 | 13.0 | 0.00 | 0.00 | 0.00 | 33 | 1029.2 |
| 20260501221404 | 84 | 323 | 7.0 | 13.0 | 0.00 | 0.00 | 0.00 | 32 | 1029.2 |
| 20260501220905 | 84 | 306 | 6.0 | 12.0 | 0.00 | 0.00 | 0.00 | 32 | 1029.2 |
| 20260501220403 | 84 | 299 | 6.0 | 15.0 | 0.00 | 0.00 | 0.00 | 32 | 1029.2 |
| 20260501215903 | 84 | 298 | 5.0 | 14.0 | 0.00 | 0.00 | 0.00 | 33 | 1029.2 |
| 20260501215403 | 84 | 304 | 9.0 | 16.0 | 0.00 | 0.00 | 0.00 | 33 | 1029.3 |
| 20260501214403 | 83 | 306 | 7.0 | 12.0 | 0.00 | 0.00 | 0.00 | 34 | 1029.5 |